Location: Gorrie
(43.8742°N, 81.1087°W)
Time: 03:25:43
(UTC+00:00)

Cosmos 1244 Rocket - Pass Details

Date: 09 December 2025
Orbit: 952 x 997 km, 83.0° (Epoch: 12 January)

Event Time Altitude Azimuth Distance (km) Brightness Sun altitude
Rises 00:08:18 0° 353° (N) 3,706 7.5 -24.7°
Reaches altitude 10° 00:10:51 10° 354° (N) 2,747 6.8 -25.1°
Maximum altitude 00:17:10 78° 82° (E) 998 4.3 -26.2°
Drops below altitude 10° 00:23:21 10° 169° (SSE) 2,697 6.7 -27.3°
Sets 00:25:50 0° 170° (S) 3,634 7.5 -27.8°
